Location: Dubov�
(48.3668°N, 17.3397°E)
Time: 08:50:11
(UTC+00:00)

Daily predictions for brighter satellites

Satellite Brightness Start Highest point End
(mag) Time Altitude Azimuth Time Altitude Azimuth Time Altitude Azimuth
CZ-2C R/B 4.4 15:59:45 10° ESE 16:03:55 21° ENE 16:07:59 10° NNE
GRACE-FO 2 4.5 16:00:54 10° N 16:04:31 75° E 16:08:08 10° S
Cosmos 1953 4.0 16:00:58 10° SW 16:04:38 36° WNW 16:08:22 10° N
Cosmos 1606 Rocket 3.6 16:04:44 10° S 16:09:02 61° E 16:13:25 10° NNE
Meteor 1-11 4.4 16:04:15 10° NNW 16:10:01 88° W 16:15:48 10° S
YAOGAN 6 3.2 16:11:54 10° S 16:15:31 64° WSW 16:19:13 10° NNW
FengYun 1-2 T 4.3 16:11:05 10° SSE 16:16:41 66° ENE 16:22:16 10° N
USA 305 3.1 16:13:13 10° WNW 16:17:30 58° NNE 16:21:43 10° E
Cosmos 292 Rocket 3.8 16:14:44 10° SSW 16:19:30 74° ESE 16:24:21 10° NNE
Meteor 2-16 Rocket 4.4 16:13:46 10° N 16:19:52 70° ENE 16:25:56 10° SSE
Cosmos 1943 Rocket 4.5 16:17:01 10° WNW 16:20:09 15° NW 16:23:17 10° N
Cosmos 1455 3.8 16:21:01 10° ESE 16:23:13 15° E 16:25:27 10° NE
SeaSat 1 4.1 16:20:53 10° ENE 16:23:51 16° NE 16:26:50 10° N
USA 306 3.0 16:19:44 10° WNW 16:24:01 61° NNE 16:28:15 10° ESE
H-2A R/B 3.3 16:20:46 10° ESE 16:24:48 22° ENE 16:28:51 10° N
Aureole 3 Rocket 3.7 16:20:50 10° SSE 16:24:51 45° E 16:30:25 10° NNE
BREEZE-M R/B 4.1 16:15:04 10° W 16:26:19 82° N 16:28:59 13° E
Cosmos 2219 3.2 16:22:46 10° NNW 16:28:35 82° ENE 16:34:21 10° SSE
Okean-O 3.4 16:25:01 10° SE 16:28:52 30° ENE 16:32:47 10° N
USA 215 4.0 16:23:00 10° ENE 16:29:03 42° N 16:35:07 10° WNW
SMAP 3.6 16:24:58 10° S 16:29:33 64° WSW 16:34:13 10° NNW
Cosmos 1745 Rocket 4.5 16:24:18 10° N 16:30:11 39° ENE 16:36:03 10° SE
Cosmos 1331 Rocket 4.2 16:25:51 10° SSW 16:30:59 73° WNW 16:36:10 10° NNE
ATLAS 5 CENTAUR R/B 3.9 16:27:58 10° NW 16:30:59 17° NNW 16:34:18 10° NNE
FALCON 9 DEB 2.9 16:29:46 10° WSW 16:33:01 85° NNW 16:35:34 15° ENE
ATLAS 2AS CENTAUR R/B 3.7 16:26:25 10° NW 16:33:17 33° NNE 16:38:49 14° E
FALCON 9 DEB 2.9 16:31:49 10° WSW 16:35:01 80° NNW 16:37:27 16° ENE
Cosmos 2082 4.0 16:30:15 10° NNW 16:35:46 46° NE 16:41:16 10° SE
Lacrosse 5 3.1 16:32:38 10° WNW 16:37:07 31° N 16:41:00 13° ENE
Cosmos 1953 Rocket 3.9 16:34:37 10° NNW 16:39:02 72° W 16:43:28 10° S
ARGOS 4.3 16:35:49 10° ESE 16:39:48 22° ENE 16:43:50 10° N
Cosmos 1656 3.8 16:36:03 10° S 16:41:29 57° ESE 16:47:02 10° NE
Cosmos 1244 Rocket 4.5 16:36:46 10° N 16:43:01 85° E 16:49:18 10° S
Cosmos 968 Rocket 3.4 16:38:03 10° NNW 16:43:17 68° ENE 16:48:25 10° SSE
Cosmos 1408 3.2 16:40:35 10° N 16:43:56 33° ENE 16:47:17 10° SE
Cosmos 2058 Rocket 3.0 16:42:23 10° S 16:46:52 75° E 16:51:24 10° NNE
Feng Yun 1-1 Rocket 4.4 16:41:45 10° SSE 16:47:41 88° ENE 16:53:39 10° NNW
ERBS 4.2 16:46:50 10° NW 16:49:19 19° N 16:50:49 15° NE
FALCON 9 DEB 3.1 16:46:27 10° WSW 16:49:41 68° NNW 16:51:36 22° ENE
ADEOS Rocket 4.2 16:44:19 10° N 16:50:29 50° WNW 16:57:18 10° SW
Cosmos 2369 4.3 16:47:21 10° SSE 16:52:25 34° ESE 16:57:13 11° NE
USA 281 4.1 16:46:34 10° S 16:52:56 53° WSW 16:59:23 10° NNW
Cosmos 1689 Rocket 2.2 16:50:12 10° NNE 16:53:01 47° E 16:55:49 10° S
Cosmos 1076 Rocket 3.9 16:51:50 10° N 16:55:50 37° ENE 16:59:47 10° SE
IRS-1C Rocket 4.0 16:50:53 10° SSE 16:56:08 84° ENE 17:01:28 10° NNW
FALCON 9 DEB 3.5 16:55:00 10° WNW 16:58:21 50° NNE 16:59:43 29° ENE
FALCON 9 DEB 3.3 16:56:06 10° W 16:59:17 58° NNW 17:00:47 27° NE
Cosmos 2227 Rocket 2.4 16:53:57 10° NNW 16:59:38 78° WSW 17:05:17 10° SSE
Cosmos 1709 Rocket 4.5 16:53:46 10° N 16:59:41 38° ENE 17:05:33 10° SE
SL-08 ROCKET BODY 4.4 16:53:38 10° N 16:59:46 70° E 17:05:55 10° SSE
Cosmos 1892 2.6 16:56:06 10° N 17:00:00 78° E 17:03:53 10° SSE
CZ-4C R/B 3.8 16:54:46 10° NW 17:00:27 29° NNE 17:04:27 19° ENE
CSL-04 Rocket 4.1 16:55:42 10° SE 17:00:48 39° ENE 17:05:53 10° N
Cosmos 1939 Rocket 2.8 16:57:25 10° SSE 17:01:23 84° WSW 17:05:18 10° NNW
Cosmos 2263 Rocket 3.3 16:56:51 10° N 17:01:35 26° NE 17:03:24 22° ENE
Cosmos 1302 Rocket 4.2 16:58:20 10° SSW 17:03:36 73° WNW 17:08:55 10° NNE
H-2A R/B 4.3 17:01:43 10° N 17:05:04 24° WNW 17:08:21 10° WSW
COSMO-SKYMED 1 2.5 17:02:52 10° NNE 17:07:14 81° ESE 17:11:35 10° SSW
USA 307 2.9 17:03:29 10° WNW 17:07:48 85° SSW 17:10:16 25° ESE
SAR-Lupe-4 3.8 17:05:20 10° N 17:08:55 71° WNW 17:12:28 10° SSW
USA 308 2.9 17:08:28 10° WNW 17:12:46 80° SSW 17:15:03 27° SE
Cosmos 1400 Rocket 3.6 17:08:48 10° SSW 17:12:50 55° WNW 17:16:52 10° N
CZ-4B R/B 3.1 17:09:56 10° N 17:12:51 32° WNW 17:15:42 10° SW
Cosmos 1486 Rocket 4.3 17:07:34 10° NNW 17:12:54 70° WSW 17:18:10 10° SSE
Cosmos 1697 Rocket 2.7 17:09:09 10° S 17:14:37 57° ESE 17:19:39 12° NE
Cosmos 1825 2.3 17:11:59 10° N 17:15:41 50° ENE 17:17:30 26° SE
ERS-2 3.9 17:13:17 10° N 17:16:35 32° WNW 17:19:51 10° SW
Helios 1A Rocket 3.0 17:14:32 10° SSE 17:18:40 81° WSW 17:22:47 10° NNW
YAOGAN 1 2.4 17:16:42 10° SSE 17:21:01 75° ENE 17:25:21 10° N
S3M 3.8 17:16:03 10° S 17:22:08 74° E 17:28:19 10° NNE
Cosmos 1503 Rocket 3.9 17:17:54 10° NNW 17:23:09 86° ENE 17:28:26 10° SSE
BREEZE-M TANK 3.3 17:16:29 10° W 17:23:32 56° SSW 17:25:00 32° SE
Cosmos 2315 Rocket 4.2 17:20:13 10° SSE 17:25:59 42° E 17:31:46 10° NNE
CZ-2D R/B 3.8 17:23:01 10° S 17:26:46 58° W 17:30:33 10° NNW
Cosmos 1812 Rocket 3.5 17:23:19 10° S 17:27:38 59° E 17:31:56 10° NNE
Meteor 2-1 Rocket 4.0 17:22:39 10° S 17:28:08 77° E 17:33:42 10° NNE
CZ-4 R/B 1.4 17:25:40 10° S 17:29:32 75° WSW 17:33:24 10° NNW
Cosmos 1346 Rocket 3.5 17:30:45 10° NNW 17:34:40 55° W 17:38:34 10° S
Cosmos 2058 3.4 17:31:21 10° NNW 17:35:25 60° W 17:39:26 10° S
Cosmos 1354 Rocket 4.0 17:30:41 10° NNW 17:35:58 85° WSW 17:41:00 11° SSE
SL-4 R/B 1.5 17:32:44 10° WNW 17:36:20 84° NNE 17:36:32 78° E
Cosmos 1980 Rocket 2.3 17:32:53 10° S 17:38:16 47° ESE 17:39:22 42° ENE
Cosmos 2151 3.5 17:34:22 10° N 17:37:30 41° NE 17:37:30 41° NE
Cosmos 2297 Rocket 3.9 17:33:51 10° NW 17:38:52 33° WSW 17:43:51 10° SSW
SJ-11-01 4.1 17:35:51 17° SSE 17:39:23 76° ENE 17:44:05 10° N
Cosmos 1992 Rocket 4.0 17:34:53 10° SSW 17:40:06 84° WNW 17:45:21 10° NNE
Timation 1 Rocket 4.3 17:36:19 10° NNW 17:42:23 88° ENE 17:46:16 23° SSE
Meteor 2-15 Rocket 4.4 17:36:35 10° S 17:42:44 88° W 17:48:55 10° N
CZ-2C R/B 3.4 17:37:27 10° S 17:43:14 76° WSW 17:48:50 10° NNW
CSL-04 Debris 4.1 17:38:16 10° SSE 17:43:42 86° ENE 17:49:13 10° NNW
Cosmos 1315 Rocket 3.1 17:42:38 10° SSW 17:46:35 67° WNW 17:50:36 10° N
CRYOSAT 2 4.3 17:44:55 10° N 17:49:49 85° W 17:54:40 10° S
Ariane Rocket 3.9 17:53:41 33° NNE 17:53:41 33° NNE 17:57:00 10° N
Geosat 3.9 17:52:54 61° E 17:53:19 63° ESE 17:58:18 10° SSW
Cosmos 2227 4.2 17:50:54 10° NNW 17:56:27 55° ENE 17:56:38 55° ENE
Meteor 2-10 Rocket 4.2 17:51:22 10° SSW 17:56:31 55° WNW 18:01:32 10° N
BREEZE-M R/B 3.9 17:52:20 10° WNW 17:56:40 80° SSW 17:59:00 45° ESE
USA 305 3.8 17:53:23 10° WNW 17:57:26 41° SW 17:58:11 37° SSW
Cosmos 1455 3.2 17:54:47 10° SSW 17:58:26 46° WNW 18:02:08 10° N
SeaSat 1 2.3 18:00:39 67° NE 18:00:39 67° NE 18:05:32 10° NNW
Cosmos 2360 4.2 17:55:47 10° SSW 18:01:31 85° WNW 18:04:36 29° NNE
NOSS 3-4 (A) 3.7 17:56:16 10° NW 18:03:13 79° NE 18:05:39 47° SE
NOSS 3-4 (C) 3.7 17:56:23 10° NW 18:03:19 79° NE 18:05:43 47° SE
H-2A R/B 2.4 17:58:17 10° S 18:03:42 71° WSW 18:09:10 10° NNW
USA 306 4.0 17:59:57 10° WNW 18:03:54 37° SW 18:04:25 36° SSW
Okean-O 4.3 18:01:19 10° SSW 18:05:18 32° W 18:09:19 10° NNW
DEBRIS 4.1 17:47:29 10° WSW 18:05:33 79° SSE 18:06:54 57° E
MOS 1 Rocket 3.4 18:03:10 10° N 18:07:53 75° WNW 18:12:52 10° SSW
USA 215 3.5 18:10:10 48° NE 18:11:25 54° NNE 18:17:45 10° NW
Cosmos 2278 3.6 18:06:03 10° SSW 18:11:45 86° ESE 18:12:45 62° NNE
NOSS 3-3 (A) 4.2 18:07:17 10° SW 18:13:11 69° NW 18:16:10 34° NNE
NOSS 3-3 (C) 4.1 18:07:23 10° SW 18:13:17 70° NW 18:16:14 34° NNE
ATLAS 5 CENTAUR R/B 4.0 18:14:27 10° NNW 18:17:34 16° N 18:17:34 16° N
GEOS 3 Rocket 3.7 18:17:20 64° S 18:18:02 73° SW 18:23:27 10° NW
ARGOS 3.4 18:17:21 36° S 18:19:33 69° WSW 18:25:00 10° NNW
Meteor 2-3 Rocket 3.7 18:14:16 10° N 18:19:36 74° NNE 18:19:36 74° NNE
COSMOS 2455 4.5 18:15:57 10° NNW 18:19:43 20° NNE 18:19:43 20° NNE
Cosmos 44 Rocket 3.5 18:15:43 10° SW 18:19:58 66° W 18:19:58 66° W
Lacrosse 5 2.7 18:16:09 10° NW 18:20:11 42° N 18:20:11 42° N
ATLAS 2AS CENTAUR R/B 2.6 18:17:44 10° NW 18:25:21 84° NE 18:26:17 70° ESE
Cosmos 1844 Rocket 4.4 18:29:06 10° NNW 18:31:40 22° N 18:31:40 22° N
SJ 16-02 3.9 18:33:11 10° N 18:33:44 13° N 18:33:44 13° N
Cosmos 2184 Rocket 4.4 18:35:41 10° N 18:40:25 52° N 18:40:25 52° N
Cosmos 2263 Rocket 2.6 18:40:22 10° NNW 18:45:08 59° WNW 18:45:08 59° WNW
CZ-4C R/B 2.9 18:43:11 10° NW 18:49:38 67° NNE 18:49:38 67° NNE
Cosmos 1697 Rocket 4.4 18:54:02 10° WSW 18:58:55 30° NW 19:01:26 21° N
Cosmos 1980 Rocket 3.8 19:17:20 10° WSW 19:21:13 31° WNW 19:21:13 31° WNW
